Knoxville, TN

9:04 PM EST on November 15, 2019 (GMT -0500)
McGhee Tyson

Weather History for KTYS - September, 2019

Change the Weather History Date:

Sunday, September 22, 2019

  Actual Average Record
Temperature  
Mean Temperature 76 °F 69 °F  
Max Temperature 89 °F 80 °F 96 °F (1931)
Min Temperature 62 °F 58 °F 38 °F (1983)
Degree Days  
Heating Degree Days 0 1  
Month to date heating degree days 0 7  
Since 1 July heating degree days 0 7  
Cooling Degree Days 10 5  
Month to date cooling degree days 306 175  
Year to date cooling degree days 1759 1456  
Growing Degree Days 26 (Base 50)    
Moisture  
Dew Point 57 °F    
Average Humidity 57    
Maximum Humidity 93    
Minimum Humidity 27    
Precipitation  
Precipitation 0.00 in 0.11 in 3.16 in (1907)
Month to date precipitation T 2.36  
Year to date precipitation 48.23 35.96  
Snow  
Snow 0.00 in 0.00 in - ()
Month to date snowfall 0.0 0.0  
Since 1 July snowfall 0.0 0.0  
Since 1 September snowfall 0.0 0.0  
Snow Depth 0.00 in    
Sea Level Pressure  
Sea Level Pressure 30.13 in    
Wind  
Wind Speed 3 mph ()    
Max Wind Speed 16 mph    
Max Gust Speed 19 mph    
Visibility 10.0 miles    
Events      
T = Trace of Precipitation, MM = Missing Value Source: Averaged Metar Reports

Daily Weather History Graph

Daily Weather History Graph

Search for Another Location

Airport or City:

Astronomy

Sep. 22, 2019 Rise Set
Actual Time 7:23 AM EDT 7:33 PM EDT
Civil Twilight 6:58 AM EDT 7:58 PM EDT
Nautical Twilight 6:28 AM EDT 8:28 PM EDT
Astronomical Twilight 5:58 AM EDT 8:58 PM EDT
Moon 12:24 AM EDT (9/22) 3:15 PM EDT (9/22)
Length of Visible Light 13h 00m
Length of Day
12h 09m
Last Quarter, 44% of the Moon is Illuminated
Sep 22
Last Quarter
Sep 28
New
Oct 5
First Quarter
Oct 13
Full
Oct 21
Last Quarter

Hourly Weather History & Observations

Time (EDT) Temp. Heat Index Dew Point Humidity Pressure Visibility Wind Dir Wind Speed Gust Speed Precip Events Conditions
12:53 AM 70.0 °F - 60.1 °F 71% 30.18 in 10.0 mi Calm Calm - N/A   Mostly Cloudy
1:53 AM 70.0 °F - 60.1 °F 71% 30.18 in 10.0 mi Calm Calm - N/A   Clear
2:53 AM 70.0 °F - 60.1 °F 71% 30.17 in 10.0 mi West 6.9 mph - N/A   Clear
3:53 AM 66.9 °F - 60.1 °F 79% 30.17 in 10.0 mi Calm Calm - N/A   Clear
4:53 AM 66.0 °F - 60.1 °F 81% 30.17 in 10.0 mi Calm Calm - N/A   Clear
5:53 AM 64.9 °F - 60.1 °F 84% 30.17 in 10.0 mi Calm Calm - N/A   Clear
6:53 AM 64.0 °F - 60.1 °F 87% 30.19 in 10.0 mi Calm Calm - N/A   Partly Cloudy
7:53 AM 63.0 °F - 60.1 °F 90% 30.21 in 10.0 mi Calm Calm - N/A   Clear
8:53 AM 68.0 °F - 61.0 °F 78% 30.22 in 10.0 mi Calm Calm - N/A   Partly Cloudy
9:53 AM 73.0 °F - 61.0 °F 66% 30.22 in 10.0 mi Variable 3.5 mph - N/A   Scattered Clouds
10:53 AM 75.0 °F - 60.1 °F 60% 30.21 in 10.0 mi Calm Calm - N/A   Scattered Clouds
11:53 AM 81.0 °F 81.1 °F 57.9 °F 45% 30.19 in 10.0 mi WSW 6.9 mph - N/A   Partly Cloudy
12:53 PM 84.0 °F 82.6 °F 54.0 °F 35% 30.16 in 10.0 mi West 8.1 mph - N/A   Partly Cloudy
1:53 PM 87.1 °F 85.3 °F 55.0 °F 33% 30.12 in 10.0 mi SSW 8.1 mph - N/A   Partly Cloudy
2:53 PM 88.0 °F 85.7 °F 53.1 °F 30% 30.09 in 10.0 mi South 8.1 mph - N/A   Clear
3:53 PM 89.1 °F - 52.0 °F 28% 30.08 in 10.0 mi West 10.4 mph 17.3 mph N/A   Clear
4:53 PM 88.0 °F - 51.1 °F 28% 30.06 in 10.0 mi WSW 9.2 mph 18.4 mph N/A   Clear
5:53 PM 87.1 °F - 52.0 °F 30% 30.05 in 10.0 mi SW 8.1 mph - N/A   Clear
6:53 PM 86.0 °F 84.0 °F 53.1 °F 32% 30.05 in 10.0 mi WSW 6.9 mph - N/A   Clear
7:53 PM 80.1 °F 80.1 °F 55.0 °F 42% 30.06 in 10.0 mi SW 6.9 mph - N/A   Clear
8:53 PM 78.1 °F - 55.0 °F 45% 30.06 in 10.0 mi SW 6.9 mph - N/A   Clear
9:53 PM 75.0 °F - 55.9 °F 51% 30.07 in 10.0 mi SW 6.9 mph - N/A   Clear
10:53 PM 72.0 °F - 57.0 °F 59% 30.08 in 10.0 mi SSW 5.8 mph - N/A   Clear
11:53 PM 71.1 °F - 57.0 °F 61% 30.07 in 10.0 mi WSW 3.5 mph - N/A   Clear